Regional Weather Roundup
Issued by NWS

Home | Current Version | Previous Version | Text Only | Print | Product List | Glossary Off
Versions: 1 2 3 4 5 6 7 8 9 10 11 12 13 14 15 16 17 18 19 20 21 22 23 24 25 26 27 28 29 30 31 32 33 34 35 36 37 38 39 40 41 42 43 44 45 46 47 48 49 50

000
ASUS44 KMEG 291910
RWRTN
TENNESSEE HOURLY STATE WEATHER ROUNDUP
NATIONAL WEATHER SERVICE MEMPHIS TN
200 PM CDT SUN MAR 29 2015

TNZ002-004-019-021-049-052-054-088>092-292000-
WEST TENNESSEE

CITY           SKY/WX    TMP DP  RH WIND       PRES   REMARKS
MEMPHIS INTL   MOSUNNY   62  42  47 S16G24    30.14F
NWS MEMPHIS      N/A     61 N/A N/A MISG        N/A
JACKSON        CLOUDY    57  35  43 S10G21    30.16F
DYERSBURG      CLOUDY   N/A N/A N/A S10G17    30.15F
UNION CITY     CLOUDY    54  36  50 S12       30.13F
PARIS          CLOUDY    55  28  35 S15       30.16F
HUNTINGDON     CLOUDY    55  25  31 S10       30.16
LEXINGTON      CLOUDY    55  28  35 S12       30.18F
SAVANNAH       CLOUDY    55  34  44 S9        30.21F
$$

TNZ008-025-027-028-033-062-065-066-292000-
NORTH MIDDLE TENNESSEE

CITY           SKY/WX    TMP DP  RH WIND       PRES   REMARKS
NASHVILLE      MOSUNNY   60  21  22 S14G21    30.21F
CLARKSVILLE    SUNNY     60  25  26 S14       30.16F
SMYRNA         SUNNY     60  24  25 SW16      30.22F
COOKEVILLE     SUNNY     59  12  15 S7        30.22F
CROSSVILLE     SUNNY     52  10  18 S12G17    30.25F
$$

TNZ061-075-076-078-094-096-097-292000-
SOUTH MIDDLE TENNESSEE

CITY           SKY/WX    TMP DP  RH WIND       PRES   REMARKS
FAYETTEVILLE   SUNNY     55  25  30 SW10      30.25F
TULLAHOMA      PTSUNNY   57  16  19 SW10      30.25F
WINCHESTER     PTSUNNY   57  19  23 S9        30.26F
MCMINNVILLE    SUNNY     57  19  23 S9        30.24F
COLUMBIA       SUNNY     63  34  34 S13       30.20F
SHELBYVILLE    PTSUNNY   61  23  23 SW13      30.25F
$$

TNZ017-018-042-046-047-292000-
NORTHEAST TENNESSEE

CITY           SKY/WX    TMP DP  RH WIND       PRES   REMARKS
TRI CITIES     MOSUNNY   52   6  15 VRB7G16   30.26F
ELIZABETHTON   CLEAR     52   3  14 NW12      30.25F
$$

TNZ012-013-036-069-073-074-292000-
CENTRAL EAST TENNESSEE

CITY           SKY/WX    TMP DP  RH WIND       PRES   REMARKS
KNOXVILLE      MOSUNNY   54  14  20 W8        30.26F
OAK RIDGE      SUNNY     55  12  18 S9        30.28F
GATLINBURG     CLEAR     54  16  22 VRB6      30.26F
MORRISTOWN     CLEAR     54  14  20 W9        30.27F
$$

TNZ083-085-099-292000-
SOUTHEAST TENNESSEE

CITY           SKY/WX    TMP DP  RH WIND       PRES   REMARKS
CHATTANOOGA    SUNNY     58  13  17 S12G17    30.29F
$$

SKY/WX REPORTED AS FAIR MEANS FEW OR NO CLOUDS BELOW
12 THOUSAND FEET.




USA.gov is the U.S. government's official web portal to all federal, state and local government web resources and services.